Weather in Krasnoyar

Russia / Perm Krai     56°28′19″N   55°25′16″E
temp.,
°C
wind,
m/s
gust,
m/s
humid.,
%
clouds,
%
prec.,
mm/h
press.,
hPa
HPBL,
m
27 february, sat
sat2723:00−21se499566 0.0 1018180
02:00−19se6149652 0.0 1015367
05:00−17se7159276 0.0 1012567
08:00−15se71494100 0.3 1008685
11:00−13se71193100 1.2 1006806
14:00−11se6991100 0.8 1005855
17:00−10se6991100 1.2 1005816
20:00−11e5995100 0.5 1004412
28 february, sun
sun2823:00−13e61193100 0.9 1004347
02:00−14ene6109399 0.3 1003311
05:00−14ene6119397 0.4 1003314
08:00−13ene6119297 0.1 1003359
11:00−12ne6109195 0.2 1004414
14:00−10ne598995 0.1 1005513
17:00−9ne599097 0.2 1006599
20:00−12nne51092100 0.1 1008386
1 march, mon
mon123:00−14ne5109193 0.2 1011275
02:00−16ne489382 0.0 1012249
05:00−18nne489482 0.1 1014189
08:00−19nne379673 0.0 1016143
11:00−16ne369175 0.0 1017314
14:00−13nne348579 0.0 1018481
17:00−12n238890 0.0 1018534
20:00−17nnw1297100 0.0 101920
2 march, tue
tue223:00−20wsw1110093 0.1 101920
02:00−21sw2210078 0.0 101820
05:00−22ssw3410084 0.0 101656
08:00−21s49100100 0.0 1014235
11:00−18s61095100 0.1 1012335
14:00−15s71192100 0.0 1009419
17:00−14s71295100 0.5 1007513
20:00−13s61294100 0.6 1005564
3 march, wed
wed323:00−12s61294100 1.0 1004490
02:00−13s51195100 0.3 1003408
05:00−13sse41095100 0.6 1002355
08:00−13se4795100 0.6 1001306
11:00−11se3594100 1.3 1001298
14:00−7ese2290100 0.4 1000341
17:00−6nne2292100 0.9 1000280
20:00−9nnw3696100 0.3 1000148